Location: Bastrop State Park
(30.1090°N, 97.2819°W)
Time: 21:16:10
(UTC-05:00)

ISS - Visible Passes

Search period start: 26 May 2017 00:00
Search period end: 05 June 2017 00:00
Orbit: 402 x 408 km, 51.6° (Epoch: 27 May)

Date Brightness Start Highest point End Pass type
(mag) Time Alt. Az. Time Alt. Az. Time Alt. Az.
26 May -1.1 04:15:29 10° NNW 04:18:05 21° NE 04:20:39 10° E visible
26 May -2.7 05:51:50 10° WNW 05:54:30 23° SW 05:57:09 10° S visible
26 May -2.6 20:50:42 10° WSW 20:53:53 47° NW 20:57:05 10° NNE visible
27 May-0.203:27:43ENE03:27:43ENE03:23:11Nvisible
27 May -3.9 05:01:13 29° WNW 05:02:36 55° SW 05:05:46 10° SSE visible
27 May -0.1 21:38:00 10° NW 21:38:41 10° NNW 21:39:21 10° NNW visible
